www.pogodaiklimat.ru

Погода и климат >> Архив погоды >> Индонезия >> Рутенг


ПОГОДА в Рутенге

  • Прогноз погоды в Рутенге
  • Монитор погоды в Рутенге

АРХИВ ПОГОДЫ в Рутенге

Время (UTC), дата Ветер
(напр.,м/с)
 
Видим.   Явления Облачность Т
(С)
Тd
(С)
f
(%)
Тe
(С)
Тes
(С)
Комфортность P
(гПа)
Po
(гПа)
Тmin
(С)
Tmax
(С)
R
(мм)
R24
(мм)
S
(см)
12 11.09 Ю 2 5000 м в посл. час дождь 10/8 360 м
[Cu med, cong As op Ci fib]
+14.8 +12.6 87 +15 +15 1013.0 890.1 +24.2 4
00 12.09 З 2 16 км 4/3 450 м
[Cu hum Ac trans Ci fib]
+17.2 +13.3 78 +18 +21 1014.1 891.3 +12.6 12
03 12.09 В 5 14 км 8/3 450 м
[Cu hum Ac trans Ci fib]
+22.0 +15.3 66 +26 +30 душно 1013.5 890.7
06 12.09 СВ 5 8000 м осадки на расстоянии 10/8 360 м
[Cu med, cong As op Ci fib]
+20.6 +16.9 79 +24 +25 комфорт 1012.0 889.2
09 12.09 штиль 0 8000 м 10/8 360 м
[Cu med, cong As op Ci fib]
+18.2 +16.5 90 +19 +19 1011.9 889.0
12 12.09 СВ 1 8000 м 5/5 400 м
[Cu hum Ci fib]
+17.0 +15.4 90 +18 +18 1011.8 889.9 +25.4
00 13.09 штиль 0 16 км 1/1 480 м
[Cu hum Ci fib]
+18.2 +18.2 100 +19 +25 1013.7 890.9 +12.0
03 13.09 СВ 2 16 км 3/3 480 м
[Cu hum Ci fib]
+23.2 +12.3 50 +26 +41 жарко 1013.7 890.9
06 13.09 С 4 14 км 6/6 420 м
[Cu med, cong Ci fib]
+22.9 +12.6 52 +26 +30 жарко 1012.3 889.4
09 13.09 З 2 10 км 8/6 400 м
[Cu med, cong As op Ci fib]
+21.0 +16.0 73 +25 +26 комфорт 1011.0 888.2
12 13.09 ЮВ 1 8000 м 1/1 480 м
[Cu hum Ci fib]
+16.8 +9.9 64 +18 +18 1012.9 890.0 +23.8
00 14.09 В 2 16 км 3/3 480 м
[Cu hum Ci fib]
+19.2 +13.2 68 +21 +25 комфорт 1014.1 891.3 +11.2
03 14.09 С 2 16 км 4/4 450 м
[Cu hum Ci fib]
+23.4 +12.9 52 +26 +40 жарко 1013.6 890.8
06 14.09 С 3 14 км 5/5 400 м
[Cu hum Ci fib]
+24.6 +15.1 55 +27 +35 жарко 1011.9 889.1
09 14.09 штиль 0 10 км 8/5 420 м
[Cu med, cong As op Ci fib]
+21.2 +17.0 77 +25 +25 комфорт 1011.3 888.4
12 14.09 С 1 10 км 8/6 400 м
[Cu med, cong As op Ci fib]
+18.4 +16.6 89 +20 +20 1012.7 889.8 +24.8
00 15.09 СВ 2 16 км 1/1 480 м
[Cu hum Ci fib]
+19.4 +13.0 66 +21 +26 комфорт 1012.9 890.1 +11.0
03 15.09 СВ 4 16 км 5/3 450 м
[Sc diur, vesp Ac trans Ci fib]
+23.4 +13.3 53 +27 +35 душно 1012.5 889.6
06 15.09 СВ 4 16 км 6/6 450 м
[Cu hum Ci fib]
+23.6 +15.6 61 +27 +31 жарко 1010.3 887.5
09 15.09 С 2 12 км 9/6 400 м
[Cu med, cong As op Ci fib]
+20.8 +17.3 80 +25 +25 комфорт 1010.8 887.9
12 15.09 СВ 2 10 км 6/5 400 м
[Cu hum Ac trans Ci fib]
+18.8 +17.5 92 +21 +21 комфорт 1011.8 889.0 +25.6
00 16.09 В 5 16 км 1/1 480 м
[Cu hum Ci fib]
+20.2 +13.5 65 +22 +25 комфорт 1012.6 889.8 +13.0
03 16.09 С 4 16 км 3/3 480 м
[Cu hum Ci fib]
+24.0 +16.4 62 +27 +37 жарко 1012.2 889.3
06 16.09 СВ 2 12 км 8/6 400 м
[Cu med, cong As op Ci fib]
+24.8 +16.6 60 +28 +33 жарко 1009.9 887.1
09 16.09 С 3 12 км 6/6 400 м
[Cu hum Ci fib]
+21.4 +17.3 77 +25 +26 комфорт 1009.8 886.9
12 16.09 штиль 0 10 км 5/5 480 м
[Cu hum Ci fib]
+18.8 +16.8 88 +20 +20 1011.4 888.6 +26.0
00 17.09 СВ 2 16 км 6/4 450 м
[Cu hum Ac trans Ci fib]
+19.0 +15.4 80 +21 +24 комфорт 1013.6 890.8 +14.7
03 17.09 З 3 16 км 6/5 400 м
[Cu hum Ci fib]
+24.8 +16.3 59 +28 +36 жарко 1012.4 889.5
06 17.09 СВ 4 16 км 6/6 400 м
[Cu med, cong As op Ci fib]
+24.6 +18.9 71 +30 +34 очень
душно
1010.5 887.6
09 17.09 СВ 1 10 км 9/6 360 м
[Cu med, cong As op Ci fib]
+20.8 +18.5 87 +26 +26 душно 1011.3 888.5
12 17.09 штиль 0 8000 м 8/5 400 м
[Cu med, cong As op Ci fib]
+19.0 +17.3 90 +20 +20 1013.2 890.3 +27.0
00 18.09 СВ 2 16 км 1/1 480 м
[Cu hum Ci fib]
+19.0 +14.8 77 +21 +26 комфорт 1013.9 891.1 +12.6
03 18.09 С 2 14 км 6/6 400 м
[Cu hum As op Ci fib]
+23.6 +17.1 67 +27 +36 жарко 1013.5 890.6
06 18.09 С 4 14 км 8/6 400 м
[Cu med, cong As op Ci fib]
+23.2 +19.1 78 +30 +33 очень
душно
1011.5 888.7

 

Местоположение метеостанции Рутенг (Индонезия): широта -8.63 долгота 120.45 высота над уровнем моря 1170 м.

В архиве по умолчанию представлена погода в Рутенге за последнюю неделю. Архивные данные за месяц целиком и за предыдущие месяцы, начиная с января 2011 года, Вы можете получить, выбрав интересующий диапазон дат из раскрывающегося списка и нажав кнопку "Ввод!".


*Определитесь, кто Вы:
робот инопланетянин человек

Внимание! Время в таблицах - всемирное. Для получения местного времени необходимо прибавить поправку, которая равна 8 ч.

Смотрите также архив погоды в соседних городах и на ближайших метеорологических станциях:

Погода в Аэропорту Умбу Механг Кунда (Индонезия) (116 км)
Погода в Биме (Индонезия) (193 км)
Погода в Маумере (Индонезия) (198 км)
Погода в Сабу (Индонезия) (257 км)
Погода в Ларантуке (Индонезия) (280 км)
Погода в Сумбава-Бесаре (Индонезия) (335 км)
Погода на Роти (Индонезия) (370 км)
Погода в Купанге (Индонезия) (391 км)
Погода в Аэропорту Султана Хасануддин (Индонезия) (408 км)
Погода в Уджангпанданге (Индонезия) (408 км)

Пояснения к столбцам:

Ветер - указаны скорость ветра в м/с - средняя за 10 мин, порывы в срок и между сроками (в фигурных скобках) и направление, откуда дует ветер: С - северный, СВ - северо-восточный, В - восточный, ЮВ - юго-восточный, Ю - южный, ЮЗ - юго-западный, З - западный, СЗ - северо-западный.
Видимость - горизонтальная дальность видимости в метрах или километрах. При видимости от 1 до 10 км при отсутствии осадков обычно наблюдается дымка, при ухудшении видимости до 1 км и менее - туман. В сухую погоду видимость может ухудшаться дымом, пылью или мглою.
Явления - указаны атмосферные явления, наблюдавшиеся в срок или в последний час перед сроком; фигурными скобками обозначены явления, наблюдавшиеся между сроками (за 1-3 часа до срока); квадратными скобками обозначены град или гололедные отложения с указанием их диаметра в мм.
Облачность - указаны через наклонную черту общая и нижняя облачность в баллах и высота нижней границы облаков в метрах; квадратными скобками обозначены формы облаков: Ci - перистые, Cs - перисто-слоистые, Cc - перисто-кучевые, Ac - высококучевые, As - высокослоистые, Sc - слоисто-кучевые, Ns - слоисто-дождевые, Cu - кучевые, Cb - кучево-дождевые. Подробнее классификацию облаков см. в Атласе облаков (PDF).
T - Температура воздуха - температура, измеренная на высоте 2 м над землей.
Td - Температура точки росы - температура, при понижении до которой содержащийся в воздухе водяной пар достигнет насыщения.
f - Относительная влажность воздуха - влажноcть воздуха, измеренная на высоте 2 м над землей.
Te - Эффективная температура - температура, которую ощущает одетый по сезону человек в тени. Характеристика душности погоды. При расчете учитывается влияние влажности воздуха и скорости ветра на теплоощущения человека.
Tes - Эффективная температура на солнце - температура, которую ощущает человек, с поправкой на солнечный нагрев. Характеристика знойности погоды. Зависит от высоты солнца над горизонтом, облачности и скорости ветра. Ночью, в пасмурную погоду, а также при ветре 12 м/с и более поправка равна нулю.
P - Атмосферное давление - приведенное к уровню моря атмосферное давление.
Po - Атмосферное давление - измеренное на уровне метеостанции атмосферное давление.
Tmin - Минимальная температура - минимум температуры воздуха на высоте 2 м над землей.
Tmax - Максимальная температура - максимум температуры воздуха на высоте 2 м над землей.
R - Количество осадков - Количество выпавших осадков за период времени, мм. При наведении курсора мыши на число - период времени, за который выпало указанное количество осадков.
R24 - Количество осадков - Количество выпавших осадков за 24 часа, мм.
S - Снежный покров - Высота снежного покрова, см. При наведении курсора мыши на число - состояние снежного покрова и степень покрытия местности в баллах.